Location: Edisto_Beach
(32.4790°N, 80.3350°W)
Time: 02:53:19
(UTC-04:00)

Amateur Radio Satellites - All Passes

Search period start: 29 July 2015 02:23
Search period end: 30 July 2015 02:23
Location: Edisto_Beach, 32.4790°N, 80.3350°W

Satellite Date Start Highest point End Downlink Frequencies (MHz)
Time Altitude Azimuth
Oscar 19 29 Jul 02:28:57 02:33:58 51° 99° (E) 02:39:01 437.125/150
O/OREOS (USA 219) 29 Jul 02:50:31 02:54:58 83° 289° (WNW) 02:59:29 437.305
Gurwin Techsat 1B 29 Jul 02:58:52 03:03:18 27° 95° (E) 03:07:50 435.225
AIST 2 29 Jul 03:00:23 03:03:47 22° 307° (NW) 03:07:08 435.215
PHONESAT 2.4 29 Jul 03:03:59 03:07:24 54° 22° (NNE) 03:10:49 2401.200-2431.200
STARS 29 Jul 03:11:46 03:15:00 21° 71° (ENE) 03:18:22 437.465
Cosmos 2504 29 Jul 03:12:43 03:19:02 40° 89° (E) 03:25:47 435.465 / 435.565
BEESAT 29 Jul 03:14:50 03:19:00 28° 264° (W) 03:23:05 436.000
KKS-1 29 Jul 03:28:12 03:32:33 60° 75° (ENE) 03:36:54 437.445
JAS-2 29 Jul 03:32:57 03:39:21 28° 93° (E) 03:45:53 435.910
SWISSCUBE 29 Jul 03:36:15 03:39:14 16° 268° (W) 03:41:59 437.505
ITAMSAT 1 29 Jul 03:41:47 03:46:57 67° 101° (ESE) 03:52:05 435.822/435.867
MOZHAYETS 4 29 Jul 03:55:33 03:57:04 12° 68° (ENE) 03:58:51
ITUPSAT 1 29 Jul 03:57:35 03:58:36 10° 270° (W) 03:59:15 437.325
Oscar 19 29 Jul 04:09:48 04:12:57 16° 292° (WNW) 04:15:53 437.125/150
CUSAT 1 29 Jul 04:28:02 04:29:15 12° 97° (E) 04:30:32 437.405
HORYU 2 29 Jul 04:30:09 04:33:47 24° 96° (E) 04:37:29 437.375
Gurwin Techsat 1B 29 Jul 04:38:40 04:43:15 29° 289° (WNW) 04:47:45 435.225
PHONESAT 2.4 29 Jul 04:42:23 04:45:13 23° 216° (SW) 04:48:01 2401.200-2431.200
STARS 29 Jul 04:47:38 04:51:20 26° 264° (W) 04:54:58 437.465
ISS 29 Jul 04:58:58 05:00:24 12° 30° (NNE) 05:01:56 145.825
Cosmos 2504 29 Jul 05:05:24 05:11:23 28° 287° (WNW) 05:17:29 435.465 / 435.565
JAS-2 29 Jul 05:17:04 05:24:37 53° 288° (WNW) 05:32:03 435.910
JUGNU 29 Jul 05:19:05 05:23:04 19° 170° (S) 05:27:04 437.505
AO-7 29 Jul 05:20:05 05:28:25 74° 104° (ESE) 05:36:43 29.400- 29.500
DANDE 29 Jul 05:22:14 05:26:12 49° 98° (E) 05:29:18 436.750
ITAMSAT 1 29 Jul 05:23:52 05:25:58 12° 294° (WNW) 05:27:43 435.822/435.867
MOZHAYETS 4 29 Jul 05:29:19 05:33:51 56° 260° (W) 05:38:26
CUBESAT XI-V 29 Jul 05:39:17 05:41:09 13° 68° (ENE) 05:43:17 437.345
HORYU 2 29 Jul 06:06:40 06:10:20 24° 289° (WNW) 06:13:54 437.375
CUSAT 1 29 Jul 06:09:42 06:11:43 15° 281° (W) 06:13:25 437.405
RS-15 29 Jul 06:14:07 06:23:11 26° 40° (NE) 06:32:58 29.354- 29.394
STRAND 1 29 Jul 06:21:32 06:23:21 12° 66° (ENE) 06:25:29 437.568
CUTE-I 29 Jul 06:24:49 06:26:56 13° 90° (E) 06:29:24 437.470
ISS 29 Jul 06:33:56 06:37:10 65° 227° (SW) 06:40:23 145.825
PRISM 29 Jul 06:40:23 06:42:00 12° 69° (ENE) 06:43:51 437.425
GONETS M04 29 Jul 06:42:06 06:50:24 53° 91° (E) 06:58:47
SRMSAT 29 Jul 07:04:13 07:08:08 18° 169° (S) 07:12:06 437.500
Cubesat XI-IV 29 Jul 07:05:31 07:10:22 36° 97° (E) 07:15:14 437.490
JUGNU 29 Jul 07:06:54 07:11:30 24° 179° (S) 07:16:04 437.505
CUBESAT XI-V 29 Jul 07:13:36 07:18:12 53° 261° (W) 07:22:47 437.345
AO-7 29 Jul 07:14:32 07:20:31 22° 300° (WNW) 07:26:09 29.400- 29.500
STRAND 1 29 Jul 07:56:57 08:02:04 66° 259° (WSW) 08:07:12 437.568
CUTE-I 29 Jul 08:02:15 08:07:29 60° 286° (WNW) 08:12:41 437.470
PRISM 29 Jul 08:13:05 08:17:06 43° 261° (W) 08:21:06 437.425
RS-15 29 Jul 08:25:31 08:37:29 89° 238° (WSW) 08:49:47 29.354- 29.394
GONETS M04 29 Jul 08:40:22 08:47:40 28° 288° (WNW) 08:54:40
CANX-2 29 Jul 08:42:44 08:43:10 10° 90° (E) 08:43:56 2200.000
HO-68 29 Jul 08:44:23 08:49:07 19° 92° (E) 08:54:13 435.675
Cubesat XI-IV 29 Jul 08:46:07 08:50:17 23° 291° (WNW) 08:54:17 437.490
Cosmos 2499 29 Jul 08:49:40 08:56:51 81° 94° (E) 09:04:36 435.465 / 435.565
SRMSAT 29 Jul 08:52:07 08:56:44 24° 179° (S) 09:01:20 437.500
JUGNU 29 Jul 08:55:48 08:59:56 20° 189° (S) 09:03:59 437.505
AAUSAT CUBESAT 2 29 Jul 09:12:38 09:13:14 10° 90° (E) 09:14:08 437.432
BRITE-PL 29 Jul 09:16:46 09:21:07 74° 283° (WNW) 09:25:47 437.365/2234.400
M-CUBED/EXP-1 PRIME 29 Jul 09:19:05 09:22:20 27° 67° (ENE) 09:25:53 437.505
BEESAT 3 29 Jul 09:22:58 09:25:27 16° 51° (NE) 09:28:02 437.485
SO-50 29 Jul 09:23:30 09:25:53 14° 109° (ESE) 09:28:32 436.795
CUBEBUG 2 29 Jul 09:42:58 09:44:53 13° 91° (E) 09:47:06 437.445
GOMX 1 29 Jul 09:44:56 09:49:23 63° 283° (WNW) 09:54:08 467.674
DOVE 4 29 Jul 09:49:49 09:54:26 87° 103° (ESE) 09:59:19 437.250
AUBIESAT-1 29 Jul 09:51:11 09:54:56 59° 71° (ENE) 09:59:04 437.475
Oscar 11 29 Jul 09:59:41 10:02:36 18° 93° (E) 10:05:39 145.826/435.025
COMPASS 1 29 Jul 10:00:35 10:04:44 55° 99° (E) 10:08:52 437.405
CUTE 1.7 + AOD 2 29 Jul 10:07:19 10:11:37 72° 282° (WNW) 10:15:51 437.475
SEEDS 29 Jul 10:09:56 10:14:13 84° 282° (WNW) 10:18:27 437.485
BEESAT 2 29 Jul 10:14:53 10:18:47 45° 59° (ENE) 10:22:39 435.950
CANX-2 29 Jul 10:15:16 10:19:27 50° 285° (WNW) 10:23:35 2200.000
PCSat 29 Jul 10:22:38 10:28:02 88° 292° (WNW) 10:33:29 145.827
CINEMA 3 29 Jul 10:23:55 10:28:36 90° 143° (SE) 10:33:29 145.822/145.860
HO-68 29 Jul 10:30:17 10:37:22 63° 288° (WNW) 10:44:26 435.675
NANOSAT C BR1 29 Jul 10:40:39 10:41:17 10° 68° (ENE) 10:42:12 145.865
RS-15 29 Jul 10:41:01 10:48:55 19° 257° (WSW) 10:55:55 29.354- 29.394
SRMSAT 29 Jul 10:41:06 10:45:19 20° 189° (S) 10:49:30 437.500
UNISAT 6 29 Jul 10:42:10 10:46:01 34° 73° (ENE) 10:50:00 437.425
AAUSAT CUBESAT 2 29 Jul 10:45:06 10:49:09 46° 285° (WNW) 10:53:09 437.432
Cosmos 2499 29 Jul 10:47:22 10:51:14 14° 295° (WNW) 10:54:41 435.465 / 435.565
JUGNU 29 Jul 10:47:34 10:48:19 10° 197° (SSW) 10:48:54 437.505
ZACube-1 29 Jul 10:52:32 10:56:56 48° 99° (E) 11:01:22 437.345
DELFI C3 29 Jul 10:54:31 10:58:31 56° 100° (E) 11:02:28 145.870
M-CUBED/EXP-1 PRIME 29 Jul 10:54:36 10:57:13 17° 264° (W) 10:59:50 437.505
BEESAT 3 29 Jul 10:59:51 11:03:32 34° 247° (WSW) 11:07:07 437.485
SO-50 29 Jul 11:01:26 11:06:01 49° 302° (WNW) 11:10:45 436.795
UWE-3 29 Jul 11:08:43 11:13:20 81° 281° (WNW) 11:17:59 435.000/436.395/437.385
50 SAT 29 Jul 11:12:07 11:13:16 11° 91° (E) 11:14:40 437.505
FUNcube-1 29 Jul 11:15:39 11:20:12 89° 122° (ESE) 11:24:47 145.935
POLYITAN 1 29 Jul 11:16:11 11:19:50 31° 73° (ENE) 11:23:34 437.675
CUBEBUG 2 29 Jul 11:17:22 11:21:51 49° 284° (WNW) 11:26:23 437.445
AISAT 29 Jul 11:21:52 11:24:10 14° 93° (E) 11:26:42 437.250
AIST 2 29 Jul 11:25:19 11:29:27 60° 60° (ENE) 11:33:29 435.215
TIGRISAT 29 Jul 11:26:28 11:30:43 70° 259° (WSW) 11:35:04 435.000
ANTELSAT 29 Jul 11:26:47 11:31:02 66° 259° (W) 11:35:24 437.575/2403.000
POPSAT HIP 1 29 Jul 11:34:12 11:38:15 50° 75° (ENE) 11:42:20 437.405
Oscar 11 29 Jul 11:35:00 11:38:50 30° 287° (WNW) 11:42:36 145.826/435.025
UKube-1 29 Jul 11:35:44 11:39:38 33° 98° (E) 11:43:33 .
QB50P2 29 Jul 11:40:52 11:45:01 65° 77° (ENE) 11:49:13 145.880/145.840
CUBEBUG 1 29 Jul 11:46:24 11:48:41 15° 92° (E) 11:51:12 437.445
BEESAT 2 29 Jul 11:55:19 11:56:27 11° 251° (WSW) 11:57:20 435.950
BUGSAT 1 29 Jul 11:55:52 11:59:51 55° 76° (ENE) 12:03:50 437.445
DX 1 29 Jul 11:58:21 12:02:42 73° 102° (ESE) 12:07:01 434.975-435.025
ESTCUBE 1 29 Jul 11:59:21 12:03:07 27° 96° (E) 12:06:57 437.505/2401.250
VELOX 1 29 Jul 12:00:26 12:04:35 41° 99° (E) 12:08:45 145.980
HUMSAT D 29 Jul 12:06:36 12:10:50 55° 284° (WNW) 12:15:04 437.325/437.525
DUCHIFAT 1 29 Jul 12:09:18 12:13:24 57° 260° (W) 12:17:31 145.980
QB50P1 29 Jul 12:10:02 12:14:08 53° 260° (W) 12:18:15 145.935-145.965
PCSat 29 Jul 12:10:44 12:12:20 11° 313° (NW) 12:13:37 145.827
NANOSAT C BR1 29 Jul 12:12:39 12:16:43 50° 260° (W) 12:20:49 145.865
YUBILEINY 29 Jul 12:16:57 12:25:27 52° 78° (ENE) 12:34:01 435.215
UNISAT 6 29 Jul 12:20:17 12:22:57 15° 268° (W) 12:25:28 437.425
ZACube-1 29 Jul 12:30:41 12:32:55 13° 291° (WNW) 12:34:56 437.345
SRMSAT 29 Jul 12:32:28 12:33:53 11° 197° (SSW) 12:35:10 437.500
SPROUT 29 Jul 12:34:57 12:37:17 15° 92° (E) 12:39:51 437.525
Cosmos 2491 29 Jul 12:43:31 12:51:40 46° 90° (E) 12:59:54 435.465 / 435.565
50 SAT 29 Jul 12:44:20 12:48:04 38° 286° (WNW) 12:51:45 437.505
POLYITAN 1 29 Jul 12:53:07 12:55:50 16° 267° (W) 12:58:23 437.675
AISAT 29 Jul 12:56:50 13:00:56 38° 287° (WNW) 13:05:00 437.250
AIST 1 29 Jul 12:59:11 13:03:31 69° 95° (E) 13:07:51
TISAT 1 29 Jul 12:59:20 13:02:01 17° 94° (E) 13:04:50 437.305
O/OREOS (USA 219) 29 Jul 13:04:59 13:09:35 87° 71° (ENE) 13:14:10 437.305
UKube-1 29 Jul 13:12:44 13:15:31 16° 290° (WNW) 13:18:09 .
CUBEBUG 1 29 Jul 13:21:14 13:25:13 36° 286° (WNW) 13:29:09 437.445
ESTCUBE 1 29 Jul 13:36:24 13:39:52 22° 289° (WNW) 13:43:13 437.505/2401.250
VELOX 1 29 Jul 13:38:23 13:40:49 14° 291° (WNW) 13:43:03 145.980
Oscar 19 29 Jul 13:41:19 13:46:09 46° 73° (ENE) 13:51:03 437.125/150
SWISSCUBE 29 Jul 14:02:53 14:05:38 16° 93° (E) 14:08:35 437.505
SPROUT 29 Jul 14:09:35 14:13:31 35° 286° (WNW) 14:17:25 437.525
YUBILEINY 29 Jul 14:14:37 14:21:55 29° 274° (W) 14:28:53 435.215
Gurwin Techsat 1B 29 Jul 14:15:36 14:20:00 28° 71° (ENE) 14:24:33 435.225
ITUPSAT 1 29 Jul 14:21:30 14:25:12 23° 95° (E) 14:29:01 437.325
AO-7 29 Jul 14:28:09 14:30:17 12° 54° (NE) 14:33:04 29.400- 29.500
TISAT 1 29 Jul 14:34:08 14:37:50 30° 287° (WNW) 14:41:28 437.305
Cosmos 2491 29 Jul 14:41:01 14:48:44 32° 287° (WNW) 14:56:14 435.465 / 435.565
Cosmos 2504 29 Jul 14:54:22 15:02:43 66° 81° (E) 15:11:18 435.465 / 435.565
ITAMSAT 1 29 Jul 14:55:04 15:00:13 64° 75° (ENE) 15:05:24 435.822/435.867
BEESAT 29 Jul 15:18:53 15:23:40 77° 283° (WNW) 15:28:25 436.000
Oscar 19 29 Jul 15:22:34 15:25:48 16° 268° (W) 15:28:46 437.125/150
JAS-2 29 Jul 15:24:19 15:29:43 44° 71° (ENE) 15:35:52 435.910
KKS-1 29 Jul 15:25:01 15:27:48 17° 93° (E) 15:30:46 437.445
HORYU 2 29 Jul 15:25:29 15:27:31 13° 68° (ENE) 15:29:49 437.375
SWISSCUBE 29 Jul 15:39:13 15:43:42 41° 287° (WNW) 15:48:08 437.505
Gurwin Techsat 1B 29 Jul 15:55:21 15:59:56 29° 264° (W) 16:04:26 435.225
ITUPSAT 1 29 Jul 15:58:58 16:03:06 29° 289° (WNW) 16:07:08 437.325
DANDE 29 Jul 16:04:19 16:07:28 24° 81° (E) 16:11:30 436.750
AO-7 29 Jul 16:13:34 16:21:48 67° 70° (ENE) 16:30:06 29.400- 29.500
ITAMSAT 1 29 Jul 16:38:16 16:40:14 12° 270° (W) 16:41:48 435.822/435.867
STARS 29 Jul 16:40:54 16:45:21 80° 103° (ESE) 16:49:47 437.465
CUSAT 1 29 Jul 16:45:31 16:49:41 60° 262° (W) 16:55:14 437.405
Cosmos 2504 29 Jul 16:48:10 16:54:23 22° 275° (W) 17:00:15 435.465 / 435.565
GONETS M04 29 Jul 16:59:25 17:05:07 20° 68° (ENE) 17:11:18
HORYU 2 29 Jul 16:59:34 17:03:49 44° 261° (W) 17:08:05 437.375
KKS-1 29 Jul 17:00:30 17:04:33 34° 287° (WNW) 17:08:33 437.445
JAS-2 29 Jul 17:10:42 17:15:12 22° 270° (W) 17:19:51 435.910
MOZHAYETS 4 29 Jul 17:29:04 17:33:33 48° 99° (E) 17:38:00
CUTE-I 29 Jul 17:42:16 17:45:02 15° 67° (ENE) 17:48:05 437.470
DANDE 29 Jul 17:47:41 17:50:32 18° 262° (W) 17:53:46 436.750
AO-7 29 Jul 18:08:58 18:15:15 22° 267° (W) 18:21:07 29.400- 29.500
Cubesat XI-IV 29 Jul 18:22:58 18:27:53 38° 72° (ENE) 18:32:52 437.490
VERMONT LUNAR 29 Jul 18:43:18 18:45:56 24° 145° (SE) 18:48:36 437.305
Cosmos 2499 29 Jul 18:46:23 18:52:57 24° 70° (ENE) 18:59:59 435.465 / 435.565
GONETS M04 29 Jul 18:54:13 19:02:53 72° 266° (W) 19:11:33
MOZHAYETS 4 29 Jul 19:08:05 19:10:23 13° 292° (WNW) 19:12:26
CUBESAT XI-V 29 Jul 19:14:52 19:19:22 54° 100° (E) 19:23:52 437.345
PCSat 29 Jul 19:15:39 19:20:15 28° 56° (NE) 19:24:56 145.827
CUTE-I 29 Jul 19:19:25 19:24:41 58° 259° (W) 19:29:59 437.470
SO-50 29 Jul 19:37:19 19:42:02 43° 57° (ENE) 19:46:37 436.795
PHONESAT 2.4 29 Jul 19:49:17 19:49:51 10° 140° (SE) 19:50:34 2401.200-2431.200
PRISM 29 Jul 19:59:56 20:03:40 34° 98° (E) 20:07:25 437.425
Cubesat XI-IV 29 Jul 20:04:02 20:08:08 21° 266° (W) 20:12:04 437.490
STRAND 1 29 Jul 20:12:11 20:17:14 62° 101° (E) 20:22:16 437.568
VERMONT LUNAR 29 Jul 20:19:29 20:22:34 46° 338° (NNW) 20:25:39 437.305
BRITE-PL 29 Jul 20:23:20 20:27:56 76° 77° (ENE) 20:32:15 437.365/2234.400
RS-15 29 Jul 20:36:18 20:42:25 18° 103° (ESE) 20:49:26 29.354- 29.394
Cosmos 2499 29 Jul 20:38:06 20:46:45 64° 268° (W) 20:55:27 435.465 / 435.565
COMPASS 1 29 Jul 20:47:55 20:51:01 21° 72° (ENE) 20:54:16 437.405
GOMX 1 29 Jul 20:48:56 20:53:19 83° 78° (ENE) 20:57:32 467.674
DOVE 4 29 Jul 20:51:34 20:55:38 48° 76° (ENE) 20:59:38 437.250
HO-68 29 Jul 20:53:16 21:00:15 62° 72° (ENE) 21:07:18 435.675
CUBESAT XI-V 29 Jul 20:54:36 20:56:24 12° 292° (WNW) 20:57:55 437.345
CUTE 1.7 + AOD 2 29 Jul 20:55:27 20:59:28 43° 75° (ENE) 21:03:33 437.475
SEEDS 29 Jul 20:57:25 21:01:15 35° 74° (ENE) 21:05:10 437.485
PCSat 29 Jul 20:58:53 21:03:40 32° 251° (WSW) 21:08:21 145.827
CANX-2 29 Jul 21:03:11 21:07:22 62° 76° (ENE) 21:11:37 2200.000
SO-50 29 Jul 21:18:57 21:22:15 17° 251° (WSW) 21:25:17 436.795
CINEMA 3 29 Jul 21:21:43 21:25:39 44° 75° (ENE) 21:29:37 145.822/145.860
PHONESAT 2.4 29 Jul 21:23:58 21:27:27 73° 152° (SSE) 21:30:58 2401.200-2431.200
AAUSAT CUBESAT 2 29 Jul 21:30:45 21:34:52 60° 77° (ENE) 21:39:02 437.432
ISS 29 Jul 21:33:54 21:36:48 31° 131° (SE) 21:39:45 145.825
PRISM 29 Jul 21:36:30 21:38:50 14° 291° (WNW) 21:40:59 437.425
DELFI C3 29 Jul 21:38:01 21:40:47 19° 71° (ENE) 21:43:41 145.870
ZACube-1 29 Jul 21:45:02 21:48:04 20° 71° (ENE) 21:51:15 437.345
STRAND 1 29 Jul 21:53:38 21:55:59 13° 294° (WNW) 21:58:02 437.568
VERMONT LUNAR 29 Jul 21:57:21 21:59:46 19° 354° (N) 22:02:10 437.305
UWE-3 29 Jul 22:01:36 22:05:32 43° 75° (ENE) 22:09:33 435.000/436.395/437.385
FUNcube-1 29 Jul 22:07:11 22:10:58 36° 74° (ENE) 22:14:52 145.935
CUBEBUG 2 29 Jul 22:11:03 22:15:11 79° 76° (ENE) 22:19:24 437.445
COMPASS 1 29 Jul 22:23:06 22:26:35 24° 265° (W) 22:29:59 437.405
Oscar 11 29 Jul 22:24:25 22:28:43 71° 259° (W) 22:33:03 145.826/435.025
UKube-1 29 Jul 22:27:09 22:29:49 17° 70° (ENE) 22:32:40 .
CUTE 1.7 + AOD 2 29 Jul 22:33:56 22:35:39 12° 269° (W) 22:37:06 437.475
SEEDS 29 Jul 22:34:48 22:37:12 14° 268° (W) 22:39:24 437.485
M-CUBED/EXP-1 PRIME 29 Jul 22:37:59 22:42:41 52° 104° (ESE) 22:47:14 437.505
UNISAT 6 29 Jul 22:40:38 22:41:57 11° 90° (E) 22:43:36 437.425
RS-15 29 Jul 22:42:42 22:53:36 86° 298° (WNW) 23:04:52 29.354- 29.394
HO-68 29 Jul 22:43:25 22:48:30 20° 267° (W) 22:53:14 435.675
DX 1 29 Jul 22:49:37 22:53:31 34° 73° (ENE) 22:57:28 434.975-435.025
HUMSAT D 29 Jul 22:53:34 22:57:33 54° 76° (ENE) 23:01:37 437.325/437.525
VELOX 1 29 Jul 22:54:13 22:57:30 21° 71° (ENE) 23:00:54 145.980
ESTCUBE 1 29 Jul 22:55:42 22:58:14 15° 69° (ENE) 23:00:59 437.505/2401.250
Cosmos 2491 29 Jul 23:01:22 23:06:13 17° 66° (ENE) 23:11:40 435.465 / 435.565
CINEMA 3 29 Jul 23:02:23 23:03:11 10° 270° (W) 23:03:41 145.822/145.860
PHONESAT 2.4 29 Jul 23:02:32 23:05:38 28° 346° (NNW) 23:08:45 2401.200-2431.200
AUBIESAT-1 29 Jul 23:10:02 23:14:48 80° 288° (WNW) 23:19:25 437.475
ISS 29 Jul 23:10:51 23:13:18 19° 326° (NW) 23:15:42 145.825
DELFI C3 29 Jul 23:12:17 23:15:41 25° 264° (W) 23:19:04 145.870
AIST 1 29 Jul 23:14:05 23:14:43 10° 71° (ENE) 23:15:40
ZACube-1 29 Jul 23:20:53 23:24:19 24° 265° (W) 23:27:43 437.345
TIGRISAT 29 Jul 23:22:37 23:26:54 35° 97° (E) 23:31:13 435.000
50 SAT 29 Jul 23:23:09 23:26:54 54° 76° (ENE) 23:30:43 437.505
ANTELSAT 29 Jul 23:23:10 23:27:30 37° 98° (E) 23:31:53 437.575/2403.000
POPSAT HIP 1 29 Jul 23:25:52 23:27:24 12° 91° (E) 23:29:13 437.405
QB50P2 29 Jul 23:32:01 23:34:28 15° 93° (E) 23:37:06 145.880/145.840
VERMONT LUNAR 29 Jul 23:34:33 23:37:08 23° 11° (N) 23:39:44 437.305
UWE-3 29 Jul 23:41:13 23:42:23 11° 270° (W) 23:43:17 435.000/436.395/437.385
BUGSAT 1 29 Jul 23:44:46 23:45:56 11° 92° (E) 23:47:22 437.445
FUNcube-1 29 Jul 23:45:25 23:47:31 13° 269° (W) 23:49:24 145.935
AISAT 29 Jul 23:49:28 23:53:53 78° 258° (WSW) 23:58:17 437.250
DUCHIFAT 1 29 Jul 23:58:40 00:02:23 30° 97° (E) 00:06:10 145.980
QB50P1 29 Jul 23:59:44 00:03:34 33° 97° (E) 00:07:26 145.935-145.965
UKube-1 30 Jul 00:01:48 00:05:43 33° 262° (W) 00:09:37 .
NANOSAT C BR1 30 Jul 00:02:03 00:05:55 34° 98° (E) 00:09:50 145.865
BEESAT 2 30 Jul 00:04:16 00:07:39 26° 112° (ESE) 00:11:08 435.950
CUBEBUG 1 30 Jul 00:12:10 00:16:33 81° 260° (W) 00:20:55 437.445
M-CUBED/EXP-1 PRIME 30 Jul 00:14:12 00:17:01 15° 297° (WNW) 00:19:35 437.505
UNISAT 6 30 Jul 00:14:30 00:19:06 55° 285° (WNW) 00:23:41 437.425
DX 1 30 Jul 00:27:08 00:29:53 16° 267° (W) 00:32:25 434.975-435.025
VELOX 1 30 Jul 00:30:09 00:33:55 26° 264° (W) 00:37:37 145.980
ESTCUBE 1 30 Jul 00:30:32 00:34:48 40° 262° (W) 00:39:04 437.505/2401.250
POLYITAN 1 30 Jul 00:41:06 00:45:22 71° 283° (WNW) 00:49:39 437.675
PHONESAT 2.4 30 Jul 00:41:28 00:44:15 21° 3° (N) 00:47:01 2401.200-2431.200
BEESAT 3 30 Jul 00:47:20 00:51:22 65° 300° (WNW) 00:55:26 437.485
AIST 1 30 Jul 00:48:39 00:52:44 45° 267° (W) 00:56:46
Cosmos 2491 30 Jul 00:55:33 01:04:17 82° 265° (W) 01:12:59 435.465 / 435.565
SPROUT 30 Jul 00:58:32 01:02:48 86° 258° (WSW) 01:07:06 437.525
POPSAT HIP 1 30 Jul 00:59:29 01:03:31 42° 286° (WNW) 01:07:33 437.405
RS-15 30 Jul 00:59:35 01:07:59 23° 323° (NW) 01:16:12 29.354- 29.394
TIGRISAT 30 Jul 01:00:05 01:03:24 19° 290° (WNW) 01:06:35 435.000
ANTELSAT 30 Jul 01:00:48 01:04:01 18° 290° (WNW) 01:07:05 437.575/2403.000
QB50P2 30 Jul 01:06:36 01:10:28 33° 287° (WNW) 01:14:17 145.880/145.840
SWISSCUBE 30 Jul 01:06:39 01:08:05 12° 67° (ENE) 01:09:49 437.505
VERMONT LUNAR 30 Jul 01:11:01 01:14:10 84° 26° (NNE) 01:17:17 437.305
YUBILEINY 30 Jul 01:11:37 01:20:11 69° 93° (E) 01:28:51 435.215
BUGSAT 1 30 Jul 01:17:47 01:21:38 41° 285° (WNW) 01:25:28 437.445
AIST 2 30 Jul 01:18:44 01:22:40 39° 114° (ESE) 01:26:39 435.215
TISAT 1 30 Jul 01:20:56 01:25:07 76° 259° (W) 01:29:17 437.305
ITUPSAT 1 30 Jul 01:24:43 01:27:39 17° 69° (ENE) 01:30:47 437.325
O/OREOS (USA 219) 30 Jul 01:35:06 01:37:55 17° 102° (ESE) 01:40:55 437.305
DUCHIFAT 1 30 Jul 01:35:07 01:37:59 17° 289° (WNW) 01:40:42 145.980
QB50P1 30 Jul 01:36:28 01:39:11 16° 290° (WNW) 01:41:44 145.935-145.965
NANOSAT C BR1 30 Jul 01:38:54 01:41:30 15° 290° (WNW) 01:43:56 145.865
BEESAT 2 30 Jul 01:42:27 01:45:41 21° 307° (NW) 01:48:51 435.950
Oscar 19 30 Jul 01:58:00 02:02:04 24° 95° (E) 02:06:16 437.125/150
